Regional Weather Roundup
Issued by NWS Goodland, KS

Home | Current Version | Previous Version | Graphics & Text | Print | Product List | Glossary On
Versions: 1 2 3 4 5 6 7 8 9 10 11 12 13 14 15 16 17 18 19 20 21 22 23 24 25 26 27 28 29 30 31 32 33 34 35 36 37 38 39 40 41 42 43 44 45 46 47 48 49 50
000
ASUS43 KGLD 292059
RWRGLD

GOODLAND FORECAST AREA HOURLY WEATHER ROUNDUP
NATIONAL WEATHER SERVICE GOODLAND KS
300 PM MDT SUN MAY 29 2016

...OFFICIAL OBSERVATIONS...

CITY           SKY/WX    TMP DP  RH WIND       PRES   REMARKS
GOODLAND KS    SUNNY     82  52  35 S12       30.00F
HILL CITY KS   CLOUDY    77  60  55 S9        30.02F
IMPERIAL NEB   MOSUNNY   80  52  37 S12       30.01F
MCCOOK NEB     SUNNY     84  54  35 VRB6      29.99F
AKRON CO       SUNNY     78  44  29 SW6       30.07F
BURLINGTON CO  MOSUNNY   81  43  26 SW9G20    30.04F
LIMON CO       MOSUNNY   76  43  30 S10       30.10F
$$

...UNOFFICIAL OBSERVATIONS...

CITY           SKY/WX    TMP DP  RH WIND       PRES   REMARKS
GOVE KS          N/A     61  32  33 MISG        N/A
LENORA KS        N/A     75  32  20 MISG        N/A
SHARON SPRINGS   N/A     84  58  41 SW12G18     N/A
TRIBUNE KS     CLOUDY    84  61  45 SE20      30.03F
KIT CARSON CO    N/A     81  47  30 MISG        N/A
YUMA CO          N/A     80  50  34 S5          N/A
$$



USA.gov is the U.S. government's official web portal to all federal, state and local government web resources and services.